Regional Weather Roundup
Issued by NWS

Home | Current Version | Previous Version | Text Only | Print | Product List | Glossary Off
Versions: 1 2 3 4 5 6 7 8 9 10 11 12 13 14 15 16 17 18 19 20 21 22 23 24 25 26 27 28 29 30 31 32 33 34 35 36 37 38 39 40 41 42 43 44 45 46 47 48 49

000
ASUS45 KBOU 220607
RWRCO

WEATHER ROUNDUP FOR COLORADO
NATIONAL WEATHER SERVICE DENVER/BOULDER CO
1100 PM MST SUN DEC 21 2014

NOTE: "FAIR" INDICATES FEW OR NO CLOUDS BELOW 12000 FEET WITH NO
SIGNIFICANT WEATHER AND/OR OBSTRUCTIONS TO VISIBILITY.

COZ001>005-013-030-031-220700-
...NORTHWEST COLORADO...

CITY           SKY/WX    TMP DP  RH WIND       PRES   REMARKS
CRAIG          LGT SNOW  34  31  88 NW12G22   29.85R FOG     WCI  25
HAYDEN         CLOUDY    30  28  93 NW31G45   29.80R WCI  15
MEEKER         FRZ RAIN  35  32  88 W8        29.85R WCI  29
MOUNT WERNER   NOT AVBL
STEAMBOAT SPGS CLOUDY    31  25  79 W13G21    29.78S WCI  21
WALDEN         CLOUDY    27  23  86 NW17      29.73R WCI  14
$$

COZ006>008-011-220700-
...WEST CENTRAL VALLEYS...

CITY           SKY/WX    TMP DP  RH WIND       PRES   REMARKS
GRAND JUNCTION CLOUDY    34  33  96 CALM      29.90R
MONTROSE       FOG       31  31 100 S6        29.92R VSB 3/4 WCI  25
EAGLE          LGT SNOW  34  32  93 CALM      29.86R FOG
RIFLE          LGT RAIN  37  32  82 W15       29.84R
DELTA          CLOUDY    35  33  92 CALM      29.92R
NUCLA          MOCLDY    32  30  93 NE5       29.98S WCI  27
$$

COZ017>023-064>068-220700-
...SOUTHWEST COLORADO...

CITY           SKY/WX    TMP DP  RH WIND       PRES   REMARKS
DURANGO        MOCLDY    37  29  72 W23G29    29.89S
CORTEZ         CLEAR     32  29  88 E8        29.97F WCI  25
PAGOSA SPRINGS LGT SNOW  31  30  99 NE3       29.90F
TELLURIDE      CLOUDY    33  31  92 W22G48    29.97S WCI  21
WOLF CREEK PAS LGT SNOW  18  18 100 MISG      29.87F VSB 3/4
$$

COZ009-010-012-014-032>034-037-058>063-220700-
...CENTRAL COLORADO...

CITY           SKY/WX    TMP DP  RH WIND       PRES   REMARKS
ASPEN          SNOW      29  28  96 N9        29.79R VSB 1/2 WCI  20
BUENA VISTA    LGT SNOW  32  31  96 CALM      29.72S VSB 1
COPPER MTN     CLOUDY    25  19  80 MISG      29.71R
BERTHOUD PASS  HVY SNOW  12   9  85 MISG      29.61F VSB<1/4
COTTONWOOD PAS LGT SNOW  32  28  86 CALM      29.72F VSB 3/4
GUNNISON       CLOUDY    34  28  80 W17G25    29.80R WCI  23
KREMMLING      LGT SNOW  32  28  86 NW14G20   29.78R VSB 3/4 WCI  22
LEADVILLE      LGT SNOW  26  20  77 NW23G37   29.72S WCI  11
MONARCH PASS   CLOUDY    23  21  93 MISG      29.85R
SALIDA         CLOUDY    34  33  94 MISG      29.79F
SUNLIGHT       CLOUDY   N/A N/A N/A W10G25    29.82R
WILKERSON PASS LGT SNOW  23  19  86 NW15G36   29.74R VSB 3/4 WCI  10
$$

COZ069>075-220700-
...SAN LUIS VALLEY/SANGRE DE CRISTO MOUNTAINS...

CITY           SKY/WX    TMP DP  RH WIND       PRES   REMARKS
ALAMOSA        PTCLDY    27  21  78 E3        29.75S
LA VETA PASS   CLOUDY    27  23  86 SW10G20   29.74F WCI  17
SAGUACHE       LGT RAIN  37  30  75 N21G37    29.73S
$$

COZ035-036-038>040-220700-
...NORTHERN COLORADO FRONT RANGE...

CITY           SKY/WX    TMP DP  RH WIND       PRES   REMARKS
DENVER INTL AP CLOUDY    32  32 100 NE13      29.68S WCI  22
DMNS CITY PARK   N/A     34  32  92 NE2G9     29.70S
AURORA         NOT AVBL
FRONT RANGE AP FLURRIES  34  32  93 N6        29.69R WCI  29
ERIE MUNI ARPT   N/A     36  32  85 CALM      29.69R
BOULDER MUN AP CLOUDY    37  32  81 N9        29.67R
CENTENNIAL     LGT SNOW  32  31  96 NE15G22   29.71R FOG     WCI  22
BROOMFIELD     FLURRIES  34  32  93 NE5       29.70R WCI  30
FORT COLLINS   MOCLDY    34  27  75 N12       29.69R WCI  25
LONGMONT       CLOUDY    41  32  71 N5        29.68S
$$

COZ041-046-047-076>085-087-088-220700-
...PIKES PEAK/PALMER DIVIDE AND SOUTHERN FOOTHILLS...

CITY           SKY/WX    TMP DP  RH WIND       PRES   REMARKS
COLO. SPRINGS  FLURRIES  36  30  79 NE15      29.67R
A. F. ACADEMY  MOCLDY    36  31  84 N7        29.68R
ELLICOTT       NOT AVBL
FALCON         LGT SNOW  34  33  94 N6        29.69R WCI  29
FORT CARSON    PTCLDY    37  26  63 NW3       29.66R
LIMON          LGT SNOW  32  32 100 NW21      29.68R FOG     WCI  20
MONUMENT HILL  LGT SNOW  32  32 100 N15G21    29.67R VSB 3/4 WCI  22
TRINIDAD       MOCLDY    47  25  42 NW13      29.63S
$$

COZ042>045-048>051-090-091-220700-
...NORTHEAST COLORADO...

CITY           SKY/WX    TMP DP  RH WIND       PRES   REMARKS
GREELEY ARPT   MOCLDY    34  25  69 NW10      29.65S WCI  26
AKRON          LGT SNOW  34  32  92 N29       29.63R FOG     WCI  20
BURLINGTON     MOCLDY    38  34  85 NW8       29.58F
WRAY           MOCLDY    40  34  79 NW17      29.58R
STERLING       LGT RAIN  37  36  93 N15       29.61R
HOLYOKE        MOCLDY    41  34  75 NW17G24   29.57S
FORT MORGAN    CLOUDY    34  31  88 N10       29.64F WCI  26
$$

COZ086-089-092>099-220700-
...SOUTHEAST COLORADO...

CITY           SKY/WX    TMP DP  RH WIND       PRES   REMARKS
PUEBLO         PTCLDY    43  27  53 NE9       29.65R
LA JUNTA       CLOUDY    41  35  79 NE13      29.64R
LAMAR          LGT RAIN  44  37  76 N23G31    29.60R
SPRINGFIELD      N/A     43  30  60 NW13      29.63R
$$


USA.gov is the U.S. government's official web portal to all federal, state and local government web resources and services.